{"data":{"norad_id":67808,"epoch":"2026-09-19T23:00:39.463776Z","epoch_age_seconds":113187,"freshness":"FRESH","line1":"1 67808U 26032M   26262.95879009  .00012977  00000+0  40371-3 0  9990","line2":"2 67808  97.2843  89.3942 0001600  93.2355 266.9071 15.33437062 34735","mean_motion":15.33437062,"eccentricity":0.00016,"inclination_deg":97.2843,"raan_deg":89.3942,"arg_perigee_deg":93.2355,"mean_anomaly_deg":266.9071,"bstar":0.00040371,"rev_number":3473,"period_min":93.906690772288,"perigee_km":464.47179987636,"apogee_km":466.66178508995,"semimajor_km":6843.7037924832,"source":"CELESTRAK","updated_at":"2026-09-20T09:00:43.663977Z"}}